TimeEST,TemperatureF,Dew PointF,Humidity,Sea Level PressureIn,VisibilityMPH,Wind Direction,Wind SpeedMPH,Gust SpeedMPH,PrecipitationIn,Events,Conditions,WindDirDegrees,DateUTC
12:56 AM,48.0,37.0,66,30.13,10.0,NNE,9.2,-,N/A,,Clear,30,2012-11-22 05:56:00
1:56 AM,46.9,36.0,66,30.13,10.0,NNE,8.1,-,N/A,,Clear,30,2012-11-22 06:56:00
2:56 AM,46.0,37.0,71,30.13,10.0,North,6.9,-,N/A,,Clear,10,2012-11-22 07:56:00
3:56 AM,44.1,36.0,73,30.13,10.0,North,6.9,-,N/A,,Clear,10,2012-11-22 08:56:00
4:56 AM,39.9,34.0,79,30.14,10.0,NNW,6.9,-,N/A,,Clear,330,2012-11-22 09:56:00
5:56 AM,37.9,35.1,89,30.16,10.0,NNW,8.1,-,N/A,,Clear,340,2012-11-22 10:56:00
6:56 AM,37.9,35.1,89,30.18,10.0,NNW,8.1,-,N/A,,Clear,340,2012-11-22 11:56:00
7:56 AM,43.0,37.9,82,30.21,10.0,North,8.1,-,N/A,,Clear,350,2012-11-22 12:56:00
8:56 AM,50.0,33.1,52,30.21,10.0,NNE,12.7,-,N/A,,Clear,20,2012-11-22 13:56:00
9:56 AM,54.0,32.0,43,30.22,10.0,NNE,13.8,23.0,N/A,,Clear,20,2012-11-22 14:56:00
10:56 AM,57.9,32.0,37,30.20,10.0,North,12.7,-,N/A,,Clear,360,2012-11-22 15:56:00
11:56 AM,60.1,30.9,33,30.17,10.0,North,15.0,20.7,N/A,,Clear,350,2012-11-22 16:56:00
12:56 PM,62.1,28.9,29,30.14,10.0,North,12.7,20.7,N/A,,Clear,360,2012-11-22 17:56:00
1:56 PM,63.0,28.0,27,30.14,10.0,North,15.0,-,N/A,,Clear,360,2012-11-22 18:56:00
2:56 PM,64.0,25.0,23,30.14,10.0,North,12.7,21.9,N/A,,Clear,10,2012-11-22 19:56:00
3:56 PM,62.1,28.0,28,30.14,10.0,North,12.7,-,N/A,,Clear,350,2012-11-22 20:56:00
4:56 PM,57.0,30.0,36,30.15,10.0,NNW,6.9,-,N/A,,Clear,330,2012-11-22 21:56:00
5:56 PM,48.9,33.1,54,30.16,10.0,NNW,5.8,-,N/A,,Clear,340,2012-11-22 22:56:00
6:56 PM,50.0,33.1,52,30.17,10.0,NNW,3.5,-,N/A,,Clear,340,2012-11-22 23:56:00
7:56 PM,44.1,34.0,68,30.18,10.0,NNW,4.6,-,N/A,,Clear,330,2012-11-23 00:56:00
8:56 PM,42.1,34.0,73,30.19,10.0,North,4.6,-,N/A,,Clear,350,2012-11-23 01:56:00
9:56 PM,41.0,34.0,76,30.19,10.0,NNW,4.6,-,N/A,,Clear,340,2012-11-23 02:56:00
10:56 PM,42.1,35.1,76,30.19,10.0,Calm,Calm,-,N/A,,Clear,0,2012-11-23 03:56:00
11:56 PM,39.0,36.0,89,30.19,10.0,Calm,Calm,-,N/A,,Clear,0,2012-11-23 04:56:00